This is the latest recevied weather packets stored in our database for station/object K6TTR. If no packets are shown the sender has not sent any weather packets the latest 10 day(s).
| Time | Temp. | Humidity | Pressure | Rain* | Wind** | Luminosity | Snow |
|---|---|---|---|---|---|---|---|
| 1777569814 | 15.56° C | 40% | 1019.3 hPa | 0 mm | - | 86 W/m² | - |
| 1777569520 | 15° C | 42% | 1019.3 hPa | 0 mm | - | 69 W/m² | - |
| 1777569224 | 15° C | 42% | 1019.3 hPa | 0 mm | - | 123 W/m² | - |
| 1777568928 | 15° C | 43% | 1019.5 hPa | 0 mm | - | 60 W/m² | - |
| 1777568614 | 14.44° C | 43% | 1019.5 hPa | 0 mm | - | 176 W/m² | - |
| 1777568319 | 14.44° C | 45% | 1019.6 hPa | 0 mm | - | 54 W/m² | - |
| 1777568022 | 14.44° C | 43% | 1019.6 hPa | 0 mm | - | 58 W/m² | - |
| 1777567728 | 13.89° C | 44% | 1019.7 hPa | 0 mm | - | 62 W/m² | - |
| 1777567412 | 13.89° C | 46% | 1019.6 hPa | 0 mm | - | 86 W/m² | - |
| 1777567118 | 13.89° C | 47% | 1019.6 hPa | 0 mm | - | 79 W/m² | - |
| 1777566821 | 13.33° C | 50% | 1019.6 hPa | 0 mm | - | 589 W/m² | - |
| 1777566526 | 13.33° C | 48% | 1019.6 hPa | 0 mm | - | 199 W/m² | - |
| 1777566228 | 13.33° C | 48% | 1019.7 hPa | 0 mm | - | 90 W/m² | - |
| 1777565912 | 12.78° C | 49% | 1019.7 hPa | 0 mm | - | 251 W/m² | - |
| 1777565618 | 12.22° C | 50% | 1019.7 hPa | 0 mm | - | 236 W/m² | - |
| 1777565320 | 12.22° C | 55% | 1019.7 hPa | 0 mm | - | 58 W/m² | - |
| 1777565026 | 11.67° C | 67% | 1019.8 hPa | 0 mm | - | 91 W/m² | - |
| 1777564730 | 10.56° C | 66% | 1019.8 hPa | 0 mm | - | 70 W/m² | - |
| 1777564415 | 10° C | 72% | 1019.7 hPa | 0 mm | - | 492 W/m² | - |
| 1777564119 | 10° C | 74% | 1019.8 hPa | 0 mm | - | 473 W/m² | - |
| 1777563824 | 8.89° C | 78% | 1019.9 hPa | 0 mm | - | 304 W/m² | - |
| 1777563528 | 8.89° C | 81% | 1019.1 hPa | 0 mm | - | 120 W/m² | - |
| 1777563215 | 7.78° C | 84% | 1019.2 hPa | 0 mm | - | 76 W/m² | - |
| 1777562921 | 7.22° C | 86% | 1019.2 hPa | 0 mm | - | 325 W/m² | - |
| 1777562626 | 7.22° C | 89% | 1019.2 hPa | 0 mm | - | 376 W/m² | - |
* Rain latest hour (hover to see other rain measurements)
** Current wind speed in m/s (hover to see current wind gust speed)